Voltar ao catálogo

COSMOS 1603

AtivoMilitarLEO
NORAD 15333·PAYLOAD·🇷🇺 Russia

Lançado Sep 28, 1984 de Baikonur Cosmodrome

Loading…

Próximas Passagens (próximas 24 horas)

TLE

AtualizadoSource: Space-Track

Época: Sep 14, 2026, 07:35 UTC

1 15333U 84106A   26257.31601750 -.00000069  00000-0 -11077-4 0  9996
2 15333  71.0241 221.0767 0017420 108.3421 251.9598 14.14523812165349

Acompanhe COSMOS 1603 em tempo real com AllMySat

Download on the App Store